Flag for Tunisia Weather past 2 weeks in Tunis, Tunisia

Now
48 °F

Rain. Passing clouds.


Feels Like: 41 °F
Forecast: 48 / 51 °F
Wind: 23 mph from Northwest

Location: Tunis-Carthage

Current Time: Mar 6, 2015 at 7:01:08 PM

Latest Report: Mar 6, 2015 at 6:30 PM


Visibility: 5 mi

Pressure: 30.18 "Hg

Humidity: 76%

Dew point: 41 °F

Location of TunisLocation

Historic Weather in Tunis — Graph

°F

Tunis temperature yesterday

Maximum temperature yesterday: 61 °F (at 12:00 AM)
Minimum temperature yesterday: 46 °F (at 11:30 PM)
Average temperature yesterday: 52 °F

Past Weeks' High & Low Weather Summary

 TemperatureHumidityPressure
High79 °F (Mar 4, 2:30 PM)100% (Feb 20, 4:00 AM)30.36 "Hg (Feb 20, 4:00 AM)
Low41 °F (Feb 20, 6:30 AM)45% (Mar 4, 2:30 PM)29.39 "Hg (Feb 22, 5:00 AM)
Average54 °F75%29.97 "Hg
* Reported Feb 19 6:00 PM — Mar 6 6:00 PM, Tunis, Weather by CustomWeather, © 2015

Note: Actual official high and low records may vary slightly from our data, if they occured in-between our weather recording intervals... More about our weather records

Advertising

Tunis weather history for previous 24 hours

 ConditionsComfort  
Time TempWeatherWind HumidityBarometerVisibility
6:00 PM
Fri, Mar 6
48 °FRain. Scattered clouds.23 mph76%30.18 "Hg5 mi
5:30 PM48 °FLight rain. Scattered clouds.24 mph76%30.18 "HgN/A
5:00 PM48 °FScattered clouds.20 mph82%30.15 "HgN/A
4:47 PM50 °FScattered clouds.18 mph76%30.15 "HgN/A
4:30 PM50 °FScattered clouds.17 mph76%30.15 "Hg5 mi
4:00 PM50 °FScattered clouds.23 mph76%30.15 "Hg5 mi
3:30 PM50 °FLight rain. Scattered clouds.23 mph76%30.15 "Hg5 mi
3:00 PM50 °FScattered clouds.17 mph76%30.12 "Hg5 mi
2:30 PM48 °FScattered clouds.18 mph82%30.12 "Hg5 mi
2:00 PM48 °FRain. Scattered clouds.22 mph76%30.12 "Hg4 mi
1:30 PM50 °FRain. Scattered clouds.28 mph71%30.12 "Hg4 mi
1:00 PM52 °FRain. Scattered clouds.28 mph62%30.12 "Hg4 mi
12:30 PM55 °FScattered clouds.24 mph55%30.12 "Hg5 mi
12:00 PM54 °FScattered clouds.23 mph58%30.12 "Hg5 mi
11:30 AM55 °FScattered clouds.21 mph59%30.12 "Hg5 mi
11:00 AM50 °FScattered clouds.21 mph71%30.12 "Hg5 mi
10:30 AM52 °FRain. Scattered clouds.26 mph67%30.12 "Hg5 mi
10:00 AM52 °FScattered clouds.21 mph62%30.12 "HgN/A
9:00 AM52 °FRain. Scattered clouds.20 mph58%30.09 "Hg5 mi
8:50 AM52 °FRain. Scattered clouds.20 mph58%30.09 "Hg5 mi
8:30 AM52 °FScattered clouds.13 mph58%30.09 "HgN/A
8:00 AM52 °FScattered clouds.15 mph54%30.07 "HgN/A
7:30 AM50 °FScattered clouds.15 mph58%30.07 "HgN/A
7:00 AM50 °FScattered clouds.14 mph54%30.07 "HgN/A
6:30 AM52 °FPassing clouds.13 mph50%30.04 "HgN/A
6:00 AM50 °FPassing clouds.12 mph58%30.04 "HgN/A
5:30 AM50 °FPassing clouds.12 mph58%30.04 "HgN/A
5:00 AM50 °FPassing clouds.10 mph58%30.04 "HgN/A
4:30 AM50 °FPassing clouds.8 mph62%30.04 "HgN/A
4:00 AM48 °FPassing clouds.9 mph66%30.04 "HgN/A
3:30 AM48 °FPassing clouds.8 mph66%30.04 "HgN/A
3:00 AM48 °FPassing clouds.10 mph66%30.04 "HgN/A
2:30 AM48 °FPassing clouds.10 mph66%30.04 "HgN/A
2:00 AM48 °FPassing clouds.9 mph71%30.04 "HgN/A
1:30 AM48 °FPassing clouds.8 mph71%30.04 "HgN/A
1:00 AM48 °FPassing clouds.9 mph71%30.04 "HgN/A
12:30 AM48 °FPassing clouds.7 mph76%30.04 "HgN/A
12:00 AM48 °FPassing clouds.7 mph76%30.04 "HgN/A
11:30 PM
Thu, Mar 5
46 °FPassing clouds.9 mph82%30.04 "HgN/A
11:00 PM48 °FPassing clouds.12 mph82%30.04 "HgN/A
10:30 PM50 °FLight rain. Passing clouds.17 mph71%30.04 "HgN/A
9:30 PM50 °FPassing clouds.8 mph71%30.04 "HgN/A
9:00 PM50 °FPassing clouds.12 mph71%30.01 "HgN/A
8:30 PM52 °FPassing clouds.13 mph62%30.01 "HgN/A
8:00 PM52 °FPassing clouds.14 mph62%29.98 "HgN/A
7:00 PM52 °FPassing clouds.12 mph62%29.95 "HgN/A
Weather by CustomWeather, © 2015

See weather overviewHow to use our weather pages